• Join FlightAware (Why Join?)
  • Login
  • US Flag GB Flag 
09:38 EDT


 

Airport Tracker/Info


-or-


 

Live Flight TrackerFlight Track Log ✈ DAL268 ✈ 15-May-2013 ✈ KJFK - LLBG / TLV

Flight Track Log - Related Links

Times and Time Zones

All times are in EDT time to prevent confusion due to time zone crossing. See the DAL268 flight status page for this flight to view local times or setup timezone preferences in your user account.

Time Position Orientation Groundspeed Altitude Reporting Facility
EDT Latitude Longitude Course Direction KTS MPH feet Rate Location/Type
23:55 40.6500 -73.8210 303° West 182 209 1,100  Level FlightAware
23:55 40.6510 -73.8310 278° West 184 212 1,500 2,220 Climbing FlightAware
23:55 40.6360 -73.8600 236° Southwest 201 231 2,600 1,500 Climbing FlightAware
23:56 40.6130 -73.8890 224° Southwest 252 290 3,000 1,560 Climbing FlightAware
23:56 40.5950 -73.8990 203° Southwest 255 293 3,800 2,640 Climbing FlightAware
23:56 40.5840 -73.9010 188° South 264 304 4,100 900 Climbing FlightAware
23:56 40.5702 -73.8981 171° South 275 316 4,100 540 Level FlightAware ADS-B
23:57 40.5555 -73.8884 153° Southeast 286 329 4,300 1,800 Climbing FlightAware ADS-B
23:57 40.5284 -73.8442 129° Southeast 309 356 5,400 1,980 Climbing FlightAware ADS-B
23:57 40.5254 -73.8355 114° Southeast 314 361 5,500 1,320 Climbing FlightAware ADS-B
23:57 40.5233 -73.8284 111° Southeast 317 365 5,600 1,980 Climbing FlightAware ADS-B
23:57 40.5205 -73.8132 104° East 318 366 5,900 2,460 Climbing FlightAware ADS-B
23:58 40.5195 -73.8056 100° East 318 366 6,100 2,520 Climbing FlightAware ADS-B
23:58 40.5190 -73.8000 97° East 319 367 6,200 2,220 Climbing FlightAware ADS-B
23:58 40.5188 -73.7903 92° East 319 367 6,400 2,160 Climbing FlightAware ADS-B
23:58 40.5193 -73.7786 87° East 320 368 6,600 1,980 Climbing FlightAware ADS-B
23:58 40.5199 -73.7728 82° East 321 369 6,700 1,680 Climbing FlightAware ADS-B
23:58 40.5211 -73.7651 78° East 321 369 6,800 1,500 Climbing FlightAware ADS-B
23:58 40.5228 -73.7575 74° East 323 372 6,900 1,500 Climbing FlightAware ADS-B
23:58 40.5253 -73.7503 65° Northeast 324 373 7,000 1,500 Climbing FlightAware ADS-B
23:58 40.5281 -73.7434 62° Northeast 324 373 7,100 1,320 Climbing FlightAware ADS-B
23:58 40.5319 -73.7369 52° Northeast 325 374 7,200 540 Climbing FlightAware ADS-B
23:58 40.5382 -73.7265 51° Northeast 323 372 7,200  Level FlightAware ADS-B
23:59 40.5571 -73.7036 43° Northeast 322 371 7,200  Level FlightAware ADS-B
23:59 40.5743 -73.6831 42° Northeast 318 366 7,200  Level FlightAware ADS-B
23:59 40.5910 -73.6641 41° Northeast 315 362 7,200  Level FlightAware ADS-B
23:59 40.6080 -73.6448 41° Northeast 319 367 7,200  Level FlightAware ADS-B
00:00 40.6256 -73.6241 42° Northeast 317 365 7,200  Level FlightAware ADS-B
00:00 40.6423 -73.6047 41° Northeast 322 371 7,200 1,620 Level FlightAware ADS-B
00:00 40.6822 -73.5571 42° Northeast 328 377 8,600 2,220 Climbing FlightAware ADS-B
00:01 40.7170 -73.5150 43° Northeast 334 384 9,800 1,920 Climbing FlightAware
00:02 40.7640 -73.4560 44° Northeast 354 407 11,000 1,440 Climbing FlightAware
00:02 40.8220 -73.3890 41° Northeast 384 442 11,900 1,320 Climbing FlightAware
00:03 40.8850 -73.3500 25° Northeast 392 451 12,900 1,740 Climbing FlightAware
00:04 40.9650 -73.3010 25° Northeast 422 486 14,400 2,040 Climbing FlightAware
00:04 41.0260 -73.2350 39° Northeast 436 502 15,800 1,920 Climbing FlightAware
00:05 41.0960 -73.1570 40° Northeast 447 514 17,200 1,620 Climbing FlightAware
00:06 41.1570 -73.0910 39° Northeast 459 528 18,100 1,020 Climbing FlightAware
00:07 41.2210 -73.0190 40° Northeast 464 534 18,600 1,620 Climbing FlightAware
00:07 41.3050 -72.9270 39° Northeast 481 554 20,400 1,500 Climbing FlightAware
00:08 41.3880 -72.8420 38° Northeast 484 557 21,000 360 Climbing FlightAware
00:09 41.4480 -72.7810 37° Northeast 484 557 21,000  Level FlightAware
00:09 41.5090 -72.7200 37° Northeast 484 557 21,000  Level FlightAware
00:10 41.5850 -72.6430 37° Northeast 484 557 21,000 2,280 Level FlightAware
00:11 41.7080 -72.5220 36° Northeast 515 593 25,200 3,660 Climbing FlightAware
00:12 41.8070 -72.4230 37° Northeast 525 604 26,500 1,440 Climbing FlightAware
00:13 41.9600 -72.2680 37° Northeast 533 613 27,900 1,260 Climbing FlightAware
00:14 42.0940 -72.1300 37° Northeast 529 609 29,600 1,320 Climbing FlightAware
00:15 42.1760 -72.0460 37° Northeast 530 610 30,400 900 Climbing FlightAware
00:16 42.2630 -71.9580 37° Northeast 530 610 31,000 420 Climbing FlightAware
00:16 42.3480 -71.8700 37° Northeast 528 608 31,000  Level FlightAware
00:17 42.4380 -71.7770 37° Northeast 528 608 31,000  Level FlightAware
00:18 42.5140 -71.6990 37° Northeast 528 608 31,000  Level FlightAware
00:18 42.5930 -71.6160 38° Northeast 528 608 31,000  Level FlightAware
00:19 42.6770 -71.5270 38° Northeast 528 608 31,000  Level FlightAware
00:20 42.7540 -71.4450 38° Northeast 530 610 31,000  Level FlightAware
00:21 42.8440 -71.3510 37° Northeast 531 611 31,000  Level FlightAware
00:21 42.9220 -71.2690 38° Northeast 533 613 31,000  Level FlightAware
00:22 43.0000 -71.1870 38° Northeast 534 615 31,000  Level FlightAware
00:23 43.0860 -71.0950 38° Northeast 534 615 31,000  Level FlightAware
00:23 43.1630 -71.0140 37° Northeast 534 615 31,000  Level FlightAware
00:24 43.2530 -70.9180 38° Northeast 534 615 31,000  Level FlightAware
00:25 43.3310 -70.8320 39° Northeast 532 612 31,000  Level FlightAware
00:25 43.4080 -70.7490 38° Northeast 532 612 31,000  Level FlightAware
00:26 43.4940 -70.6570 38° Northeast 533 613 31,000  Level FlightAware
00:27 43.5720 -70.5720 38° Northeast 533 613 31,000  Level FlightAware
00:28 43.6590 -70.4770 38° Northeast 533 613 31,000  Level FlightAware
00:28 43.7380 -70.3910 38° Northeast 533 613 31,000  Level FlightAware
00:29 43.8130 -70.3080 39° Northeast 534 615 31,000  Level FlightAware
00:30 43.9000 -70.2120 38° Northeast 533 613 31,000  Level FlightAware
00:30 43.9780 -70.1270 38° Northeast 533 613 31,000  Level FlightAware
00:31 44.0550 -70.0410 39° Northeast 533 613 31,000  Level FlightAware
00:32 44.1370 -69.9490 39° Northeast 532 612 31,000  Level FlightAware
00:32 44.2000 -69.8810 38° Northeast 532 612 31,000  Level FlightAware
00:33 44.3040 -69.7620 39° Northeast 532 612 31,000  Level FlightAware
00:34 44.3820 -69.6750 39° Northeast 533 613 31,000  Level FlightAware
00:34 44.4480 -69.6000 39° Northeast 535 616 31,000  Level FlightAware
00:35 44.5440 -69.4930 38° Northeast 534 615 31,000  Level FlightAware
00:36 44.6190 -69.4050 40° Northeast 535 616 31,000  Level FlightAware
00:37 44.7070 -69.3060 39° Northeast 536 617 31,000  Level FlightAware
00:37 44.7850 -69.2160 39° Northeast 536 617 31,000  Level FlightAware
00:38 44.8710 -69.1160 39° Northeast 536 617 31,000  Level FlightAware
00:39 44.9510 -69.0250 39° Northeast 537 618 31,000  Level FlightAware
00:39 45.0270 -68.9360 40° Northeast 538 619 31,000  Level FlightAware
00:40 45.1130 -68.8370 39° Northeast 541 623 31,000  Level FlightAware
00:41 45.1900 -68.7470 39° Northeast 541 623 31,000  Level FlightAware
00:42 45.2670 -68.6570 39° Northeast 543 625 31,000  Level FlightAware
00:42 45.3440 -68.5660 40° Northeast 541 623 31,000  Level FlightAware
00:43 45.4330 -68.4610 40° Northeast 540 621 31,000  Level FlightAware
00:44 45.5090 -68.3700 40° Northeast 536 617 31,000  Level FlightAware
00:45 45.6670 -68.1820 40° Northeast 525 604 31,000  Level FlightAware
00:46 45.8000 -68.0220 40° Northeast 530 610 31,000  Level FlightAware
00:47 45.9310 -67.8640 40° Northeast 527 606 31,000  Level FlightAware
00:49 46.1110 -67.6450 40° Northeast 525 604 31,000  Level FlightAware
00:50 46.2290 -67.5000 40° Northeast 525 604 31,000  Level FlightAware
00:51 46.3050 -67.4070 40° Northeast 525 604 31,000  Level FlightAware
00:52 46.3690 -67.3310 39° Northeast 525 604 31,000  Level FlightAware
00:52 46.4320 -67.2540 40° Northeast 525 604 31,000  Level FlightAware
00:53 46.5110 -67.1570 40° Northeast 525 604 31,000  Level FlightAware
00:54 46.5740 -67.0800 40° Northeast 525 604 31,000  Level FlightAware
00:54 46.6370 -67.0030 40° Northeast 525 604 31,000  Level FlightAware
00:55 46.7010 -66.9250 40° Northeast 525 604 31,000  Level FlightAware
00:56 46.7640 -66.8480 40° Northeast 525 604 31,000  Level FlightAware
00:56 46.8270 -66.7700 40° Northeast 525 604 31,000  Level FlightAware
00:57 46.9060 -66.6730 40° Northeast 525 604 31,000  Level FlightAware
00:58 46.9700 -66.5960 39° Northeast 525 604 31,000  Level FlightAware
00:59 47.0330 -66.5180 40° Northeast 525 604 31,000  Level FlightAware
00:59 47.0960 -66.4400 40° Northeast 525 604 31,000  Level FlightAware
01:00 47.1590 -66.3620 40° Northeast 525 604 31,000  Level FlightAware
01:01 47.3833 -66.0167 40° Northeast 540 621 31,000  Level Gander Center
01:01 47.4333 -65.9500 42° Northeast 540 621 31,000  Level Gander Center
01:02 47.5000 -65.8667 40° Northeast 530 610 31,000  Level Moncton Center
01:03 47.6167 -65.7167 41° Northeast 530 610 31,000  Level Moncton Center
01:04 47.7333 -65.5667 41° Northeast 530 610 31,000  Level Moncton Center
01:05 47.8333 -65.4167 45° Northeast 530 610 31,000  Level Moncton Center
01:06 47.9500 -65.2667 41° Northeast 530 610 31,000  Level Moncton Center
01:07 48.0500 -65.1167 45° Northeast 530 610 31,000  Level Moncton Center
01:08 48.1500 -64.9667 45° Northeast 520 598 31,000  Level Moncton Center
01:09 48.2667 -64.8167 41° Northeast 520 598 31,000  Level Moncton Center
01:10 48.3667 -64.7000 38° Northeast 520 598 31,000 -60 Level Moncton Center
01:11 48.4833 -64.5167 46° Northeast 510 587 30,900  Descending Moncton Center
01:12 48.5833 -64.4000 38° Northeast 510 587 31,000  Climbing Moncton Center
01:13 48.6833 -64.2500 45° Northeast 510 587 31,000  Level Moncton Center
01:14 48.7833 -64.1000 45° Northeast 520 598 31,000  Level Moncton Center
01:15 48.9000 -63.9333 43° Northeast 510 587 31,000  Level Moncton Center
01:16 49.0000 -63.8167 37° Northeast 510 587 31,000  Level Moncton Center
01:17 49.1000 -63.6500 47° Northeast 510 587 31,000  Level Moncton Center
01:17 49.1500 -63.6000 33° Northeast 510 587 31,000  Level Gander Center
01:18 49.2500 -63.4667 41° Northeast 510 587 31,000  Level Gander Center
01:19 49.3167 -63.3500 49° Northeast 510 587 31,000  Level Moncton Center
01:20 49.4167 -63.2167 41° Northeast 510 587 31,000  Level Moncton Center
01:20 49.4500 -63.1667 44° Northeast 510 587 31,000  Level Gander Center
01:21 49.5167 -63.0500 49° Northeast 500 575 31,000  Level Moncton Center
01:21 49.5500 -63.0167 33° Northeast 500 575 31,000  Level Gander Center
01:22 49.6500 -62.8500 47° Northeast 500 575 31,000  Level Gander Center
01:23 49.7167 -62.7667 39° Northeast 500 575 31,000  Level Moncton Center
01:24 49.8167 -62.6000 47° Northeast 500 575 31,000  Level Moncton Center
01:25 49.9167 -62.4667 41° Northeast 510 587 31,000  Level Moncton Center
01:25 49.9500 -62.4000 52° Northeast 490 564 31,000  Level Gander Center
01:26 50.0500 -62.2500 44° Northeast 500 575 31,000  Level Gander Center
01:27 50.1500 -62.0833 47° Northeast 500 575 31,000  Level Gander Center
01:28 50.2167 -61.9833 44° Northeast 500 575 31,000  Level Moncton Center
01:29 50.3167 -61.8500 40° Northeast 480 552 31,000  Level Moncton Center
01:30 50.4167 -61.6833 47° Northeast 500 575 31,000  Level Moncton Center
01:30 50.4333 -61.6500 52° Northeast 490 564 31,000  Level Gander Center
01:31 50.5333 -61.5000 44° Northeast 490 564 31,000  Level Gander Center
01:32 50.6333 -61.3333 47° Northeast 490 564 31,000 -60 Level Gander Center
01:33 50.7167 -61.2000 45° Northeast 480 552 30,900  Descending Gander Center
01:34 50.8167 -61.0500 43° Northeast 490 564 31,000  Climbing Gander Center
01:35 50.9167 -60.8833 46° Northeast 490 564 31,000  Level Gander Center
01:36 51.0167 -60.7167 46° Northeast 500 575 31,000  Level Gander Center
01:37 51.1167 -60.5667 43° Northeast 500 575 31,000 120 Level Gander Center
01:38 51.2167 -60.4000 46° Northeast 510 587 31,300 480 Climbing Gander Center
01:39 51.3167 -60.2333 46° Northeast 530 610 32,000 840 Climbing Gander Center
01:40 51.3833 -60.1333 43° Northeast 530 610 32,700 600 Climbing Moncton Center
01:41 51.4833 -59.9667 46° Northeast 530 610 33,000 120 Climbing Moncton Center
01:42 51.6000 -59.7833 44° Northeast 530 610 33,000  Level Moncton Center
01:42 51.6333 -59.7167 51° Northeast 530 610 33,000  Level Gander Center
01:43 51.6667 -59.6333 57° Northeast 530 610 33,000 -120 Level Gander Center
01:44 51.7667 -59.4500 49° Northeast 540 621 32,900  Descending Gander Center
01:44 51.8167 -59.3333 55° Northeast 540 621 33,000 60 Climbing Gander Center
01:45 51.9000 -59.1333 56° Northeast 540 621 33,000 -120 Level Gander Center
01:46 51.9667 -59.0500 38° Northeast 550 633 32,900  Descending Moncton Center
01:47 52.0667 -58.8333 53° Northeast 550 633 33,000 60 Climbing Moncton Center
01:47 52.1000 -58.7500 57° Northeast 550 633 33,000  Level Gander Center
01:48 52.2000 -58.5833 46° Northeast 560 644 33,000  Level Gander Center
01:49 52.2833 -58.3833 56° Northeast 560 644 33,000  Level Gander Center
01:50 52.4000 -58.1500 51° Northeast 560 644 33,000  Level Gander Center
01:51 52.5000 -57.9500 51° Northeast 560 644 33,000  Level Gander Center
01:52 52.5667 -57.8500 42° Northeast 570 656 33,000  Level Moncton Center
01:53 52.6500 -57.6333 58° Northeast 570 656 33,000  Level Moncton Center
01:53 52.6833 -57.5500 57° Northeast 570 656 33,000  Level Gander Center
01:54 52.7500 -57.4333 47° Northeast 570 656 33,000 -120 Level Moncton Center
01:55 52.8500 -57.2167 53° Northeast 570 656 32,900  Descending Moncton Center
01:56 52.9500 -57.0000 52° Northeast 570 656 33,000 60 Climbing Moncton Center
01:56 52.9833 -56.9167 56° Northeast 570 656 33,000 -120 Level Gander Center
01:57 53.0833 -56.7167 50° Northeast 570 656 32,900  Descending Gander Center
01:58 53.1333 -56.5833 58° Northeast 580 667 33,000 60 Climbing Moncton Center
01:59 53.2333 -56.3667 52° Northeast 580 667 33,000  Level Moncton Center
01:59 53.2833 -56.2667 50° Northeast 580 667 33,000 -120 Level Gander Center
02:00 53.3667 -56.0667 55° Northeast 580 667 32,900  Descending Gander Center
02:01 53.4167 -55.9500 54° Northeast 580 667 33,000 60 Climbing Moncton Center
02:01 53.4667 -55.8667 45° Northeast 580 667 33,000  Level Gander Center
02:02 53.5500 -55.6500 57° Northeast 580 667 33,000  Level Gander Center
02:03 53.6167 -55.5000 53° Northeast 580 667 33,000  Level Moncton Center
02:03 53.6333 -55.4333 67° East 570 656 33,000  Level Gander Center
02:04 53.7500 -55.2000 50° Northeast 580 667 33,000  Level Gander Center
02:05 53.8333 -54.9833 57° Northeast 570 656 33,000  Level Gander Center
02:06 53.8667 -54.9667 67° East 558 642 33,000  Level ETMS Enhanced Traffic Management System
02:06 53.9000 -54.7500 67° East 570 656 33,000  Level Gander Center
02:07 53.9500 -54.5500 67° East 560 644 33,000  Level Gander Center
02:08 54.0167 -54.3000 66° East 560 644 33,000  Level Gander Center
02:09 54.0667 -54.0333 72° East 560 644 33,000  Level Gander Center
02:10 54.1333 -53.8000 64° Northeast 560 644 33,000  Level Gander Center
02:11 54.1833 -53.5667 70° East 560 644 33,000  Level Gander Center
02:12 54.2500 -53.3167 65° Northeast 560 644 33,000  Level Gander Center
02:13 54.3167 -53.0833 64° Northeast 550 633 33,000  Level Gander Center
02:14 54.3667 -52.8333 71° East 550 633 33,000  Level Gander Center
02:15 54.4167 -52.5667 72° East 550 633 33,000  Level Gander Center
02:16 54.4333 -52.4667 74° East 550 633 33,000  Level Gander Center
02:17 54.5000 -52.2333 64° Northeast 550 633 33,000  Level Gander Center
02:17 54.5333 -52.0833 69° East 550 633 33,000  Level Gander Center
02:19 54.5854 -51.8606 68° East  Level FlightAware Approximate
02:26 54.9387 -50.2858 68° East  Level FlightAware Approximate
02:27 54.9875 -50.0586 69° East  Level FlightAware Approximate
02:28 55.0250 -49.8244 76° East  Level FlightAware Approximate
02:28 55.0000 -50.0000 76° East 544 626 33,000  Level ETMS Enhanced Traffic Management System
02:29 55.0581 -49.5883 76° East  Level FlightAware Approximate
02:30 55.0907 -49.3523 76° East  Level FlightAware Approximate
02:31 55.1228 -49.1158 77° East  Level FlightAware Approximate
02:32 55.1545 -48.8790 77° East  Level FlightAware Approximate
02:33 55.1858 -48.6418 77° East  Level FlightAware Approximate
02:34 55.2776 -47.9399 78° East 544 626 33,000  Level FlightAware Transoceanic
02:35 55.3099 -47.6805 78° East 544 626 33,000  Level FlightAware Transoceanic
02:36 55.3416 -47.4206 78° East 544 626 33,000  Level FlightAware Transoceanic
02:37 55.3727 -47.1603 78° East 544 626 33,000  Level FlightAware Transoceanic
02:38 55.4034 -46.8995 78° East 544 626 33,000  Level FlightAware Transoceanic
02:39 55.4334 -46.6384 79° East 544 626 33,000  Level FlightAware Transoceanic
02:40 55.4629 -46.3769 79° East 544 626 33,000  Level FlightAware Transoceanic
02:41 55.4918 -46.1150 79° East 544 626 33,000  Level FlightAware Transoceanic
02:42 55.5202 -45.8527 79° East 544 626 33,000  Level FlightAware Transoceanic
02:43 55.5480 -45.5901 80° East 544 626 33,000  Level FlightAware Transoceanic
02:44 55.5752 -45.3270 80° East 544 626 33,000  Level FlightAware Transoceanic
02:45 55.6019 -45.0636 80° East 544 626 33,000  Level FlightAware Transoceanic
02:46 55.6280 -44.7999 80° East 544 626 33,000  Level FlightAware Transoceanic
02:47 55.6535 -44.5358 80° East 544 626 33,000  Level FlightAware Transoceanic
02:48 55.6785 -44.2714 81° East 544 626 33,000  Level FlightAware Transoceanic
02:49 55.7029 -44.0066 81° East 544 626 33,000  Level FlightAware Transoceanic
02:50 55.7268 -43.7415 81° East 544 626 33,000  Level FlightAware Transoceanic
02:51 55.7500 -43.4761 81° East 544 626 33,000  Level FlightAware Transoceanic
02:52 55.7727 -43.2104 81° East 544 626 33,000  Level FlightAware Transoceanic
02:53 55.7948 -42.9444 82° East 544 626 33,000  Level FlightAware Transoceanic
02:54 55.8164 -42.6781 82° East 544 626 33,000  Level FlightAware Transoceanic
02:55 55.8374 -42.4114 82° East 544 626 33,000  Level FlightAware Transoceanic
02:56 55.8577 -42.1445 82° East 544 626 33,000  Level FlightAware Transoceanic
02:57 55.8776 -41.8773 83° East 544 626 33,000  Level FlightAware Transoceanic
02:58 55.8968 -41.6099 83° East 544 626 33,000  Level FlightAware Transoceanic
02:59 55.9155 -41.3422 83° East 544 626 33,000  Level FlightAware Transoceanic
03:00 55.9335 -41.0742 83° East 544 626 33,000  Level FlightAware Transoceanic
03:01 55.9510 -40.8060 83° East 544 626 33,000  Level FlightAware Transoceanic
03:02 55.9679 -40.5376 84° East 544 626 33,000  Level FlightAware Transoceanic
03:03 55.9843 -40.2689 84° East 544 626 33,000  Level FlightAware Transoceanic
03:04 55.9987 -40.0217 84° East  Level FlightAware Approximate
03:05 56.0128 -39.7743 84° East  Level FlightAware Approximate
03:06 56.0081 -39.7954 86° East  Level FlightAware Approximate
03:07 56.0175 -39.5473 86° East  Level FlightAware Approximate
03:08 56.0264 -39.2990 86° East  Level FlightAware Approximate
03:08 56.0000 -40.0000 86° East 543 625 33,000  Level ETMS Enhanced Traffic Management System
03:09 56.0348 -39.0506 86° East  Level FlightAware Approximate
03:10 56.0427 -38.8021 87° East  Level FlightAware Approximate
03:11 56.0501 -38.5536 87° East  Level FlightAware Approximate
03:12 56.0570 -38.3049 87° East  Level FlightAware Approximate
03:13 56.0634 -38.0561 87° East  Level FlightAware Approximate
03:14 56.0745 -37.5709 88° East 543 625 33,000  Level FlightAware Transoceanic
03:15 56.0798 -37.3005 88° East 543 625 33,000  Level FlightAware Transoceanic
03:16 56.0845 -37.0300 88° East 543 625 33,000  Level FlightAware Transoceanic
03:17 56.0887 -36.7594 89° East 543 625 33,000  Level FlightAware Transoceanic
03:18 56.0922 -36.4889 89° East 543 625 33,000  Level FlightAware Transoceanic
03:19 56.0952 -36.2182 89° East 543 625 33,000  Level FlightAware Transoceanic
03:20 56.0976 -35.9475 89° East 543 625 33,000  Level FlightAware Transoceanic
03:21 56.0993 -35.6768 89° East 543 625 33,000  Level FlightAware Transoceanic
03:22 56.1005 -35.4061 90° East 543 625 33,000  Level FlightAware Transoceanic
03:23 56.1011 -35.1354 90° East 543 625 33,000  Level FlightAware Transoceanic
03:24 56.1011 -34.8646 90° East 543 625 33,000  Level FlightAware Transoceanic
03:25 56.1005 -34.5939 90° East 543 625 33,000  Level FlightAware Transoceanic
03:26 56.0993 -34.3232 91° East 543 625 33,000  Level FlightAware Transoceanic
03:27 56.0976 -34.0525 91° East 543 625 33,000  Level FlightAware Transoceanic
03:28 56.0952 -33.7818 91° East 543 625 33,000  Level FlightAware Transoceanic
03:29 56.0922 -33.5111 91° East 543 625 33,000  Level FlightAware Transoceanic
03:30 56.0887 -33.2406 91° East 543 625 33,000  Level FlightAware Transoceanic
03:31 56.0845 -32.9700 92° East 543 625 33,000  Level FlightAware Transoceanic
03:32 56.0798 -32.6995 92° East 543 625 33,000  Level FlightAware Transoceanic
03:33 56.0745 -32.4291 92° East 543 625 33,000  Level FlightAware Transoceanic
03:34 56.0686 -32.1588 92° East 543 625 33,000  Level FlightAware Transoceanic
03:35 56.0621 -31.8886 93° East 543 625 33,000  Level FlightAware Transoceanic
03:36 56.0550 -31.6184 93° East 543 625 33,000  Level FlightAware Transoceanic
03:37 56.0473 -31.3484 93° East 543 625 33,000  Level FlightAware Transoceanic
03:38 56.0390 -31.0784 93° East 543 625 33,000  Level FlightAware Transoceanic
03:39 56.0301 -30.8086 93° East 543 625 33,000  Level FlightAware Transoceanic
03:40 56.0207 -30.5389 94° East 543 625 33,000  Level FlightAware Transoceanic
03:41 56.0106 -30.2694 94° East 543 625 33,000  Level FlightAware Transoceanic
03:42 56.0009 -30.0213 94° East  Level FlightAware Approximate
03:43 55.9906 -29.7734 94° East  Level FlightAware Approximate
03:44 55.9881 -29.7953 96° East  Level FlightAware Approximate
03:45 55.9732 -29.5482 96° East  Level FlightAware Approximate
03:46 55.9579 -29.3013 96° East  Level FlightAware Approximate
03:47 55.9420 -29.0546 96° East  Level FlightAware Approximate
03:47 56.0000 -30.0000 96° East 544 626 33,000  Level ETMS Enhanced Traffic Management System
03:48 55.9257 -28.8081 97° East  Level FlightAware Approximate
03:49 55.9088 -28.5618 97° East  Level FlightAware Approximate
03:50 55.8915 -28.3158 97° East  Level FlightAware Approximate
03:51 55.8737 -28.0699 97° East  Level FlightAware Approximate
03:52 55.8554 -27.8243 97° East  Level FlightAware Approximate
03:53 55.8366 -27.5789 98° East  Level FlightAware Approximate
03:54 55.7727 -26.7896 99° East 544 626 33,000  Level FlightAware Transoceanic
03:55 55.7500 -26.5239 99° East 544 626 33,000  Level FlightAware Transoceanic
03:56 55.7268 -26.2585 99° East 544 626 33,000  Level FlightAware Transoceanic
03:57 55.7029 -25.9934 99° East 544 626 33,000  Level FlightAware Transoceanic
03:58 55.6785 -25.7286 99° East 544 626 33,000  Level FlightAware Transoceanic
03:59 55.6535 -25.4642 100° East 544 626 33,000  Level FlightAware Transoceanic
04:00 55.6280 -25.2001 100° East 544 626 33,000  Level FlightAware Transoceanic
04:01 55.6019 -24.9363 100° East 544 626 33,000  Level FlightAware Transoceanic
04:02 55.5752 -24.6730 100° East 544 626 33,000  Level FlightAware Transoceanic
04:03 55.5480 -24.4099 100° East 544 626 33,000  Level FlightAware Transoceanic
04:04 55.5202 -24.1473 101° East 544 626 33,000  Level FlightAware Transoceanic
04:05 55.4918 -23.8850 101° East 544 626 33,000  Level FlightAware Transoceanic
04:06 55.4629 -23.6231 101° East 544 626 33,000  Level FlightAware Transoceanic
04:07 55.4334 -23.3616 101° East 544 626 33,000  Level FlightAware Transoceanic
04:08 55.4034 -23.1005 102° East 544 626 33,000  Level FlightAware Transoceanic
04:09 55.3727 -22.8398 102° East 544 626 33,000  Level FlightAware Transoceanic
04:10 55.3416 -22.5794 102° East 544 626 33,000  Level FlightAware Transoceanic
04:11 55.3099 -22.3195 102° East 544 626 33,000  Level FlightAware Transoceanic
04:12 55.2776 -22.0601 102° East 544 626 33,000  Level FlightAware Transoceanic
04:13 55.2449 -21.8010 103° East 544 626 33,000  Level FlightAware Transoceanic
04:14 55.2115 -21.5424 103° East 544 626 33,000  Level FlightAware Transoceanic
04:15 55.1776 -21.2842 103° East 544 626 33,000  Level FlightAware Transoceanic
04:16 55.1432 -21.0264 103° East 544 626 33,000  Level FlightAware Transoceanic
04:17 55.1082 -20.7691 103° East 544 626 33,000  Level FlightAware Transoceanic
04:18 55.0727 -20.5123 104° East 544 626 33,000  Level FlightAware Transoceanic
04:19 55.0366 -20.2559 104° East 544 626 33,000  Level FlightAware Transoceanic
04:20 55.0030 -20.0206 104° East  Level FlightAware Approximate
04:21 54.9689 -19.7857 104° East  Level FlightAware Approximate
04:22 54.9760 -19.8046 102° East  Level FlightAware Approximate
04:23 54.9464 -19.5679 102° East  Level FlightAware Approximate
04:24 54.9164 -19.3317 102° East  Level FlightAware Approximate
04:25 54.8860 -19.0961 103° East  Level FlightAware Approximate
04:26 54.8551 -18.8609 103° East  Level FlightAware Approximate
04:27 54.8238 -18.6261 103° East  Level FlightAware Approximate
04:28 54.7920 -18.3917 103° East  Level FlightAware Approximate
04:29 54.7598 -18.1576 103° East  Level FlightAware Approximate
04:30 54.7271 -17.9239 104° East  Level FlightAware Approximate
04:31 54.6940 -17.6905 104° East  Level FlightAware Approximate
04:32 54.6604 -17.4576 104° East  Level FlightAware Approximate
04:33 54.6264 -17.2250 104° East  Level FlightAware Approximate
04:34 54.5919 -16.9929 104° East  Level FlightAware Approximate
04:35 54.5570 -16.7611 104° East  Level FlightAware Approximate
04:36 54.5216 -16.5297 105° East  Level FlightAware Approximate
04:37 54.4859 -16.2987 105° East  Level FlightAware Approximate
04:38 54.4496 -16.0682 105° East  Level FlightAware Approximate
04:39 54.4129 -15.8380 105° East  Level FlightAware Approximate
04:40 54.3758 -15.6083 105° East  Level FlightAware Approximate
04:41 54.3383 -15.3790 106° East  Level FlightAware Approximate
04:42 54.3003 -15.1501 106° East  Level FlightAware Approximate
04:43 54.2619 -14.9216 106° East  Level FlightAware Approximate
04:44 54.2231 -14.6935 106° East  Level FlightAware Approximate
04:45 54.1837 -14.4655 106° East  Level FlightAware Approximate
04:45 53.9450 -13.6530 106° East 541 623 33,000  Level FlightAware
04:45 53.9150 -13.4870 107° East 540 621 33,000  Level FlightAware
04:46 53.8810 -13.3010 107° East 538 619 33,000  Level FlightAware
04:47 53.8520 -13.1450 107° East 536 617 33,000  Level FlightAware
04:47 53.8190 -12.9650 107° East 536 617 33,000  Level FlightAware
04:48 53.7890 -12.8100 108° East 535 616 33,000  Level FlightAware
04:49 53.7580 -12.6470 108° East 535 616 33,000  Level FlightAware
04:49 53.7240 -12.4720 108° East 535 616 33,000  Level FlightAware
04:50 53.6920 -12.3060 108° East 534 615 33,000  Level FlightAware
04:51 53.6580 -12.1290 108° East 531 611 33,000  Level FlightAware
04:52 53.6270 -11.9710 108° East 530 610 33,000  Level FlightAware
04:52 53.5950 -11.8140 109° East 529 609 33,000  Level FlightAware
04:53 53.5600 -11.6390 109° East 527 606 33,000  Level FlightAware
04:54 53.5290 -11.4870 109° East 525 604 33,000  Level FlightAware
04:54 53.4970 -11.3280 109° East 525 604 33,000  Level FlightAware
04:55 53.4610 -11.1550 109° East 524 603 33,000 480 Level FlightAware
04:56 53.4290 -11.0010 109° East 521 600 33,700 1,080 Climbing FlightAware
04:56 53.3940 -10.8320 109° East 522 601 34,600 900 Climbing FlightAware
04:57 53.3610 -10.6790 110° East 526 605 35,000 240 Climbing FlightAware
04:58 53.3240 -10.5030 109° East 524 603 35,000  Level FlightAware
05:00 53.2570 -10.1400 107° East  Level FlightAware Approximate
05:00 53.2020 -9.9380 107° East 518 596 35,000  Level FlightAware
05:01 53.2155 -9.9183 107° East  Level FlightAware Approximate
05:01 53.1650 -9.7690 110° East 520 598 35,000  Level FlightAware
05:02 53.1310 -9.6190 111° Southeast 521 600 35,000  Level FlightAware
05:02 53.0980 -9.4690 110° East 520 598 35,000  Level FlightAware
05:03 53.0550 -9.2820 111° Southeast 516 594 35,000  Level FlightAware
05:04 53.0220 -9.1330 110° East 514 592 35,000  Level FlightAware
05:05 52.9880 -8.9880 111° Southeast 515 593 35,000 -1,620 Level FlightAware
05:05 52.9668 -8.8927 111° Southeast 500 575 33,400 -2,580 Descending FlightAware UK
05:05 52.9513 -8.8259 111° Southeast 502 578 33,400 3,840 Level FlightAware UK
05:05 52.9510 -8.8260 111° Southeast 514 592 35,000  Climbing FlightAware
05:06 52.9308 -8.7374 111° Southeast 500 575 33,400 -2,760 Descending FlightAware UK
05:06 52.9156 -8.6710 111° Southeast 502 578 33,400 4,140 Level FlightAware UK
05:06 52.9140 -8.6700 111° Southeast 514 592 35,000  Climbing FlightAware
05:06 52.8949 -8.5824 111° Southeast 500 575 33,400 -2,640 Descending FlightAware UK
05:07 52.8793 -8.5161 111° Southeast 498 573 33,400 3,660 Level FlightAware UK
05:07 52.8760 -8.5050 111° Southeast 515 593 35,000  Climbing FlightAware
05:07 52.8583 -8.4276 111° Southeast 502 578 33,400 -2,880 Descending FlightAware UK
05:07 52.8424 -8.3608 111° Southeast 502 578 33,400 3,960 Level FlightAware UK
05:07 52.8410 -8.3570 111° Southeast 514 592 35,000  Climbing FlightAware
05:08 52.8214 -8.2726 111° Southeast 502 578 33,400 -2,700 Descending FlightAware UK
05:08 52.8055 -8.2065 112° Southeast 504 580 33,400 4,320 Level FlightAware UK
05:08 52.8070 -8.2140 112° Southeast 513 590 35,000  Climbing FlightAware
05:08 52.7847 -8.1185 112° Southeast 502 578 33,400 -2,580 Descending FlightAware UK
05:09 52.7689 -8.0528 112° Southeast 504 580 33,400 4,800 Level FlightAware UK
05:09 52.7710 -8.0640 112° Southeast 513 590 35,000  Climbing FlightAware
05:09 52.7530 -7.9872 112° Southeast 504 580 33,400 -2,880 Descending FlightAware UK
05:09 52.7370 -7.9216 112° Southeast 506 582 33,400 3,300 Level FlightAware UK
05:10 52.7330 -7.9030 112° Southeast 510 587 35,000  Climbing FlightAware
05:10 52.7106 -7.8127 112° Southeast 506 582 33,400 -2,640 Descending FlightAware UK
05:10 52.6947 -7.7476 112° Southeast 504 580 33,400 4,560 Level FlightAware UK
05:10 52.6970 -7.7550 112° Southeast 508 585 35,000  Climbing FlightAware
05:10 52.6790 -7.6825 112° Southeast 504 580 33,400 -2,940 Descending FlightAware UK
05:11 52.6633 -7.6175 112° Southeast 504 580 33,400 3,840 Level FlightAware UK
05:11 52.6630 -7.6140 112° Southeast 510 587 35,000  Climbing FlightAware
05:11 52.6422 -7.5311 112° Southeast 506 582 33,400 -2,760 Descending FlightAware UK
05:11 52.6263 -7.4667 112° Southeast 504 580 33,400 3,420 Level FlightAware UK
05:12 52.6210 -7.4460 112° Southeast 508 585 35,000  Climbing FlightAware
05:12 52.5999 -7.3599 112° Southeast 502 578 33,400 -2,580 Descending FlightAware UK
05:12 52.5841 -7.2958 112° Southeast 502 578 33,400 4,800 Level FlightAware UK
05:12 52.5860 -7.3030 112° Southeast 506 582 35,000  Climbing FlightAware
05:13 52.5682 -7.2319 112° Southeast 500 575 33,400 -2,880 Descending FlightAware UK
05:13 52.5523 -7.1681 112° Southeast 500 575 33,400 3,300 Level FlightAware UK
05:13 52.5460 -7.1470 112° Southeast 505 581 35,000  Climbing FlightAware
05:13 52.5256 -7.0610 112° Southeast 500 575 33,400 -2,580 Descending FlightAware UK
05:14 52.5095 -6.9973 113° Southeast 502 578 33,400 4,800 Level FlightAware UK
05:14 52.5110 -7.0020 113° Southeast 507 583 35,000  Climbing FlightAware
05:14 52.4935 -6.9336 113° Southeast 504 580 33,400 -2,880 Descending FlightAware UK
05:14 52.4773 -6.8699 113° Southeast 504 580 33,400 3,960 Level FlightAware UK
05:14 52.4750 -6.8640 113° Southeast 505 581 35,000  Climbing FlightAware
05:15 52.4558 -6.7850 113° Southeast 504 580 33,400 -2,700 Descending FlightAware UK
05:15 52.4396 -6.7216 113° Southeast 502 578 33,400 3,540 Level FlightAware UK
05:15 52.4330 -6.6980 113° Southeast 503 579 35,000  Climbing FlightAware
05:15 52.4180 -6.6372 113° Southeast 502 578 33,400 -2,940 Descending FlightAware UK
05:16 52.4019 -6.5739 113° Southeast 502 578 33,400 3,840 Level FlightAware UK
05:16 52.3970 -6.5540 113° Southeast 503 579 35,000  Climbing FlightAware
05:16 52.3747 -6.4689 113° Southeast 502 578 33,400 -2,400 Descending FlightAware UK
05:16 52.3584 -6.4059 113° Southeast 502 578 33,400 4,320 Level FlightAware UK
05:17 52.3600 -6.4140 113° Southeast 502 578 35,000  Climbing FlightAware
05:17 52.3367 -6.3221 113° Southeast 502 578 33,400 -2,580 Descending FlightAware UK
05:17 52.3204 -6.2595 113° Southeast 502 578 33,400 3,840 Level FlightAware UK
05:17 52.3170 -6.2500 113° Southeast 501 577 35,000  Climbing FlightAware
05:18 52.2986 -6.1760 113° Southeast 502 578 33,400 -2,760 Descending FlightAware UK
05:18 52.2822 -6.1134 113° Southeast 502 578 33,400 5,280 Level FlightAware UK
05:18 52.2860 -6.1280 113° Southeast 502 578 35,000  Climbing FlightAware
05:18 52.2659 -6.0507 113° Southeast 502 578 33,400 -2,700 Descending FlightAware UK
05:18 52.2495 -5.9882 113° Southeast 502 578 33,400 3,540 Level FlightAware UK
05:19 52.2430 -5.9650 113° Southeast 502 578 35,000  Climbing FlightAware
05:19 52.2273 -5.9042 113° Southeast 504 580 33,400 -2,940 Descending FlightAware UK
05:19 52.2108 -5.8418 113° Southeast 506 582 33,400 3,180 Level FlightAware UK
05:19 52.2010 -5.8050 113° Southeast 501 577 35,000  Climbing FlightAware
05:20 52.1830 -5.7380 113° Southeast 506 582 33,400 -2,700 Descending FlightAware UK
05:20 52.1687 -5.6747 110° East 504 580 33,400 4,320 Level FlightAware UK
05:20 52.1670 -5.6650 110° East 500 575 35,000  Climbing FlightAware
05:20 52.1544 -5.5877 110° East 504 580 33,400 -2,580 Descending FlightAware UK
05:21 52.1460 -5.5213 102° East 504 580 33,400 4,800 Level FlightAware UK
05:21 52.1460 -5.5190 102° East 501 577 35,000 2,040 Climbing FlightAware
05:21 52.1250 -5.3610 102° East 499 574 35,000 -1,200 Level FlightAware
05:22 52.1049 -5.2130 102° East 502 578 33,400  Descending FlightAware UK
05:22 52.1050 -5.2150 102° East 496 571 35,000  Climbing FlightAware
05:23 52.0873 -5.0814 102° East 498 573 33,400  Descending FlightAware UK
05:23 52.0850 -5.0700 102° East 494 568 35,000  Climbing FlightAware
05:23 52.0754 -4.9946 102° East 496 571 33,400 -2,760 Descending FlightAware UK
05:23 52.0664 -4.9296 103° East 498 573 33,400 3,420 Level FlightAware UK
05:24 52.0630 -4.9030 103° East 493 567 35,000  Climbing FlightAware
05:24 52.0513 -4.8214 103° East 496 571 33,400  Descending FlightAware UK
05:24 52.0420 -4.7550 103° East 494 568 35,000  Climbing FlightAware
05:25 52.0303 -4.6697 103° East 500 575 33,400 -2,400 Descending FlightAware UK
05:25 52.0211 -4.6046 103° East 500 575 33,400 4,140 Level FlightAware UK
05:25 52.0200 -4.5960 103° East 495 570 35,000 2,100 Climbing FlightAware
05:26 51.9990 -4.4520 103° East 495 570 35,000  Level FlightAware
05:26 51.9890 -4.3790 103° East 496 571 35,000 -2,940 Level FlightAware ADS-B
05:26 51.9813 -4.3225 103° East 502 578 33,400  Descending FlightAware UK
05:27 51.9705 -4.2490 103° East 496 571 35,000  Climbing FlightAware ADS-B
05:27 51.9593 -4.1705 103° East 500 575 33,400  Descending FlightAware UK
05:27 51.9543 -4.1368 103° East 496 571 35,000 1,740 Climbing FlightAware ADS-B
05:28 51.9308 -3.9783 103° East 496 571 35,000 -1,560 Level FlightAware ADS-B
05:28 51.9214 -3.9098 103° East 504 580 33,400  Descending FlightAware UK
05:28 51.9145 -3.8666 103° East 495 570 35,000  Climbing FlightAware ADS-B
05:29 51.9054 -3.8018 103° East 504 580 33,400  Descending FlightAware UK
05:29 51.8980 -3.7548 103° East 496 571 35,000  Climbing FlightAware ADS-B
05:29 51.8894 -3.6939 103° East 504 580 33,400  Descending FlightAware UK
05:29 51.8805 -3.6365 103° East 494 568 35,000  Climbing FlightAware ADS-B
05:30 51.8701 -3.5648 103° East 500 575 33,400  Descending FlightAware UK
05:30 51.8660 -3.5360 103° East 492 566 35,000  Climbing FlightAware
05:30 51.8475 -3.4149 103° East 502 578 33,400  Descending FlightAware UK
05:31 51.8440 -3.3930 103° East 492 566 35,000  Climbing FlightAware
05:31 51.8311 -3.3073 103° East 502 578 33,400  Descending FlightAware UK
05:31 51.8220 -3.2470 103° East 490 564 35,000  Climbing FlightAware
05:32 51.8084 -3.1582 103° East 504 580 33,400  Descending FlightAware UK
05:32 51.7980 -3.0920 103° East 488 562 35,000 2,880 Climbing FlightAware
05:32 51.7905 -3.0457 105° East 488 562 35,000 -3,720 Level FlightAware ADS-B
05:32 51.7820 -2.9879 105° East 502 578 33,400  Descending FlightAware UK
05:33 51.7735 -2.9362 105° East 489 563 35,000  Climbing FlightAware ADS-B
05:33 51.7654 -2.8820 105° East 500 575 33,400  Descending FlightAware UK
05:33 51.7560 -2.8234 105° East 489 563 35,000 1,980 Climbing FlightAware ADS-B
05:34 51.7388 -2.7140 104° East 489 563 35,000  Level FlightAware ADS-B
05:34 51.7210 -2.6012 104° East 488 562 35,000  Level FlightAware ADS-B
05:35 51.7025 -2.4888 105° East 488 562 35,000  Level FlightAware ADS-B
05:35 51.6846 -2.3766 104° East 488 562 35,000 -1,740 Level FlightAware ADS-B
05:36 51.6710 -2.2898 104° East 504 580 33,400  Descending FlightAware UK
05:36 51.6670 -2.2679 104° East 487 560 35,000  Climbing FlightAware ADS-B
05:36 51.6504 -2.1631 104° East 502 578 33,400 -2,100 Descending FlightAware UK
05:37 51.6401 -2.1005 105° East 498 573 33,400 3,420 Level FlightAware UK
05:37 51.6347 -2.0694 105° East 484 557 35,000  Climbing FlightAware ADS-B
05:37 51.6230 -1.9963 105° East 500 575 33,400  Descending FlightAware UK
05:37 51.6171 -1.9615 105° East 484 557 35,000  Climbing FlightAware ADS-B
05:38 51.6056 -1.8917 105° East 498 573 33,400  Descending FlightAware UK
05:38 51.5996 -1.8576 105° East 484 557 35,000 2,280 Climbing FlightAware ADS-B
05:38 51.5818 -1.7499 105° East 484 557 35,000  Level FlightAware ADS-B
05:39 51.5639 -1.6459 105° East 486 559 35,000 -1,980 Level FlightAware ADS-B
05:39 51.5531 -1.5788 105° East 496 571 33,400  Descending FlightAware UK
05:39 51.5459 -1.5380 105° East 486 559 35,000 2,220 Climbing FlightAware ADS-B
05:40 51.5277 -1.4299 105° East 487 560 35,000 -2,040 Level FlightAware ADS-B
05:40 51.5177 -1.3698 105° East 500 575 33,400  Descending FlightAware UK
05:40 51.5097 -1.3254 105° East 487 560 35,000 2,160 Climbing FlightAware ADS-B
05:41 51.4920 -1.2175 105° East 488 562 35,000  Level FlightAware ADS-B
05:41 51.4766 -1.1114 103° East 490 564 35,000 -1,860 Level FlightAware ADS-B
05:42 51.4668 -1.0307 103° East 500 575 33,400  Descending FlightAware UK
05:42 51.4628 -0.9975 103° East 490 564 35,000  Climbing FlightAware ADS-B
05:42 51.4549 -0.9244 103° East 504 580 33,400  Descending FlightAware UK
05:42 51.4495 -0.8803 103° East 489 563 35,000 2,220 Climbing FlightAware ADS-B
05:43 51.4364 -0.7739 101° East 487 560 35,000 -1,860 Level FlightAware ADS-B
05:43 51.4262 -0.6894 101° East 500 575 33,400  Descending FlightAware UK
05:43 51.4225 -0.6612 101° East 487 560 35,000 2,460 Climbing FlightAware ADS-B
05:44 51.4088 -0.5556 102° East 485 558 35,000  Level FlightAware ADS-B
05:44 51.3949 -0.4502 102° East 485 558 35,000 -120 Level FlightAware ADS-B
05:45 51.3825 -0.3517 101° East 486 559 34,900  Descending FlightAware ADS-B
05:45 51.3723 -0.2416 98° East 487 560 35,000 60 Climbing FlightAware ADS-B
05:46 51.3625 -0.1278 98° East 486 559 35,000  Level FlightAware ADS-B
05:47 51.3520 -0.0108 98° East 484 557 35,000  Level FlightAware ADS-B
05:47 51.3418 0.0983 98° East 483 556 35,000  Level FlightAware ADS-B
05:48 51.3320 0.2148 98° East 483 556 35,000  Level FlightAware ADS-B
05:48 51.3210 0.3456 98° East 482 555 35,000  Level FlightAware ADS-B
05:49 51.3111 0.4545 98° East 482 555 35,000 -1,980 Level FlightAware ADS-B
05:49 51.3052 0.5212 98° East 492 566 33,400  Descending FlightAware UK
05:49 51.3008 0.5705 98° East 483 556 35,000  Climbing FlightAware ADS-B
05:50 51.2956 0.6267 98° East 494 568 33,400  Descending FlightAware UK
05:50 51.2911 0.6763 98° East 483 556 35,000  Climbing FlightAware ADS-B
05:50 51.2860 0.7324 98° East 494 568 33,400  Descending FlightAware UK
05:50 51.2810 0.7854 98° East 483 556 35,000 1,800 Climbing FlightAware ADS-B
05:51 51.2689 0.9159 98° East 484 557 35,000 -1,560 Level FlightAware ADS-B
05:51 51.2605 1.0082 98° East 494 568 33,400  Descending FlightAware UK
05:52 51.2500 1.1200 98° East 483 556 35,000  Climbing FlightAware
05:52 51.2425 1.1987 98° East 496 571 33,400  Descending FlightAware UK
05:53 51.2350 1.2790 98° East 482 555 35,000  Climbing FlightAware
05:53 51.2221 1.4111 98° East 492 566 33,400 -180 Descending FlightAware UK
05:53 51.2210 1.4270 98° East 482 555 34,900  Climbing FlightAware
05:54 51.2139 1.4952 98° East 494 568 33,400 -2,700 Descending FlightAware UK
05:54 51.2062 1.5581 101° East 494 568 33,400 3,300 Level FlightAware UK
05:54 51.2010 1.5890 101° East 475 547 35,000  Climbing FlightAware
05:54 51.1873 1.6578 101° East 496 571 33,400 -2,640 Descending FlightAware UK
05:55 51.1723 1.7149 113° Southeast 496 571 33,400 4,560 Level FlightAware UK
05:55 51.1740 1.7090 113° Southeast 465 535 35,000  Climbing FlightAware
05:55 51.1561 1.7705 113° Southeast 494 568 33,400 -2,940 Descending FlightAware UK
05:55 51.1403 1.8263 114° Southeast 494 568 33,400 3,660 Level FlightAware UK
05:55 51.1337 1.8487 114° Southeast 462 532 35,000  Climbing FlightAware ADS-B
05:56 51.1191 1.9004 114° Southeast 494 568 33,400 -2,400 Descending FlightAware UK
05:56 51.0976 1.9740 115° Southeast 492 566 33,400 3,420 Level FlightAware UK
05:56 51.0970 1.9770 115° Southeast 458 527 35,000 6,840 Climbing FlightAware
05:56 51.0853 2.0139 117° Southeast 458 527 35,000  Level FlightAware ADS-B
05:57 51.0610 2.0990 114° Southeast 457 526 35,000 -120 Level FlightAware
05:57 51.0304 2.1993 116° Southeast 457 526 34,900 -120 Descending FlightAware ADS-B
05:58 51.0021 2.2959 115° Southeast 454 522 34,900 60 Level FlightAware ADS-B
05:58 50.9742 2.3883 116° Southeast 450 518 35,000 -1,860 Climbing FlightAware ADS-B
05:59 50.9578 2.4451 116° Southeast 490 564 33,400  Descending FlightAware UK
05:59 50.9447 2.4896 116° Southeast 449 517 35,000 1,620 Climbing FlightAware ADS-B
06:00 50.9130 2.5960 115° Southeast 447 514 35,000  Level FlightAware
06:00 50.8760 2.7160 116° Southeast 442 509 35,000  Level FlightAware
06:01 50.8470 2.8121 116° Southeast 439 505 35,000 -1,380 Level FlightAware ADS-B
06:02 50.8101 2.9357 116° Southeast 492 566 33,400  Descending FlightAware UK
06:02 50.8050 2.9500 116° Southeast 431 496 35,000  Climbing FlightAware
06:02 50.7630 3.0892 116° Southeast 490 564 33,400  Descending FlightAware UK
06:03 50.7660 3.0810 116° Southeast 428 493 35,000  Climbing FlightAware
06:03 50.7420 3.1575 116° Southeast 492 566 33,400 -2,700 Descending FlightAware UK
06:03 50.7266 3.2083 116° Southeast 492 566 33,400 4,320 Level FlightAware UK
06:03 50.7280 3.2020 116° Southeast 425 489 35,000  Climbing FlightAware
06:04 50.6955 3.3088 116° Southeast 494 568 33,400  Descending FlightAware UK
06:04 50.6950 3.3110 116° Southeast 420 483 35,000 5,640 Climbing FlightAware
06:04 50.6819 3.3519 117° Southeast 424 488 35,000  Level FlightAware ADS-B
06:05 50.6570 3.4320 116° Southeast 416 479 35,000  Level FlightAware
06:05 50.6458 3.4672 117° Southeast 420 483 35,000  Level FlightAware ADS-B
06:05 50.6189 3.5542 116° Southeast 416 479 35,000  Level FlightAware ADS-B
06:06 50.5870 3.6540 117° Southeast 411 473 35,000 -1,380 Level FlightAware
06:06 50.5582 3.7494 117° Southeast 486 559 33,400  Descending FlightAware UK
06:07 50.5514 3.7700 117° Southeast 415 478 35,000  Climbing FlightAware ADS-B
06:07 50.5223 3.8618 117° Southeast 484 557 33,400  Descending FlightAware UK
06:07 50.5170 3.8770 117° Southeast 409 471 35,000  Climbing FlightAware
06:08 50.4863 3.9740 117° Southeast 1 1 33,400  Descending FlightAware UK
06:08 50.4780 3.9980 117° Southeast 410 472 35,000 1,920 Climbing FlightAware
06:09 50.4450 4.1033 116° Southeast 415 478 35,000 -1,620 Level FlightAware ADS-B
06:09 50.4185 4.1813 116° Southeast 1 1 33,400  Descending FlightAware UK
06:10 50.3997 4.2453 116° Southeast 414 476 35,000  Climbing FlightAware ADS-B
06:10 50.3775 4.3112 116° Southeast 1 1 33,400  Descending FlightAware UK
06:10 50.3750 4.3230 116° Southeast 409 471 35,000 3,300 Climbing FlightAware
06:10 50.3534 4.3897 117° Southeast 414 476 35,000  Level FlightAware ADS-B
06:11 50.3340 4.4480 118° Southeast 411 473 35,000  Level FlightAware
06:11 50.3242 4.4778 117° Southeast 414 476 35,000 -4,020 Level FlightAware ADS-B
06:11 50.3060 4.5387 117° Southeast 1 1 33,400  Descending FlightAware UK
06:12 50.2951 4.5689 117° Southeast 417 480 35,000  Climbing FlightAware ADS-B
06:12 50.2789 4.6172 117° Southeast 1 1 33,400  Descending FlightAware UK
06:12 50.2679 4.6523 117° Southeast 417 480 35,000  Climbing FlightAware ADS-B
06:12 50.2508 4.6942 117° Southeast 1 1 33,400  Descending FlightAware UK
06:13 50.2383 4.7433 117° Southeast 418 481 35,000  Climbing FlightAware ADS-B
06:13 50.2160 4.8103 117° Southeast 1 1 33,400  Descending FlightAware UK
06:13 50.2057 4.8425 117° Southeast 418 481 35,000 1,980 Climbing FlightAware ADS-B
06:14 50.1734 4.9389 118° Southeast 418 481 35,000  Level FlightAware ADS-B
06:14 50.1530 5.0010 117° Southeast 419 482 35,000  Level FlightAware
06:14 50.1402 5.0407 117° Southeast 420 483 35,000  Level FlightAware ADS-B
06:15 50.1130 5.1210 118° Southeast 421 484 35,000  Level FlightAware
06:15 50.1021 5.1538 117° Southeast 422 486 35,000  Level FlightAware ADS-B
06:16 50.0790 5.2240 117° Southeast 422 486 35,000  Level FlightAware
06:17 50.0370 5.3480 118° Southeast 425 489 35,000  Level FlightAware
06:17 49.9990 5.4620 117° Southeast 427 491 35,000  Level FlightAware
06:18 49.9600 5.5800 117° Southeast 425 489 35,000  Level FlightAware
06:19 49.9200 5.6970 118° Southeast 427 491 35,000  Level FlightAware
06:19 49.8820 5.8060 118° Southeast 427 491 35,000  Level FlightAware
06:20 49.8410 5.9260 118° Southeast 428 493 35,000  Level FlightAware
06:21 49.8090 6.0190 118° Southeast 428 493 35,000  Level FlightAware
06:21 49.7720 6.1250 118° Southeast 428 493 35,000  Level FlightAware
06:22 49.7250 6.2610 118° Southeast 428 493 35,000  Level FlightAware
06:23 49.6870 6.3690 119° Southeast 428 493 35,000  Level FlightAware
06:24 49.6420 6.4990 118° Southeast 427 491 35,000  Level FlightAware
06:24 49.6040 6.6070 118° Southeast 427 491 35,000  Level FlightAware
06:25 49.5680 6.7070 119° Southeast 426 490 35,000  Level FlightAware
06:26 49.5240 6.8330 118° Southeast 431 496 35,000  Level FlightAware
06:27 49.4690 6.9860 119° Southeast 432 497 35,000  Level FlightAware
06:27 49.4260 7.1070 119° Southeast 432 497 35,000  Level FlightAware
06:28 49.3870 7.2150 119° Southeast 433 498 35,000  Level FlightAware
06:29 49.3510 7.3140 119° Southeast 35,000  Level FlightAware
06:30 49.2660 7.5470 119° Southeast 434 499 35,000 -60 Level FlightAware
06:31 49.2210 7.6700 119° Southeast 435 501 34,900  Descending FlightAware
06:31 49.1860 7.7640 120° Southeast 436 502 35,000 60 Climbing FlightAware
06:32 49.1420 7.8850 119° Southeast 435 501 35,000  Level FlightAware
06:33 49.0980 8.0010 120° Southeast 439 505 35,000  Level FlightAware
06:33 49.0680 8.0830 119° Southeast 442 509 35,000  Level FlightAware
06:34 49.0130 8.2280 120° Southeast 444 511 35,000  Level FlightAware
06:35 48.9730 8.3350 120° Southeast 449 517 35,000  Level FlightAware
06:36 48.9190 8.4500 126° Southeast 439 505 35,000  Level FlightAware
06:36 48.8650 8.5390 133° Southeast 438 504 35,000  Level FlightAware
06:37 48.7980 8.6420 135° Southeast 435 501 35,000 60 Level FlightAware
06:38 48.7320 8.7400 136° Southeast 439 505 35,100 600 Climbing FlightAware
06:38 48.6730 8.8310 134° Southeast 442 509 35,900 1,320 Climbing FlightAware
06:39 48.6140 8.9180 136° Southeast 435 501 36,900 720 Climbing FlightAware
06:40 48.5540 9.0090 135° Southeast 433 498 37,000 60 Climbing FlightAware
06:41 48.4920 9.1020 135° Southeast 436 502 37,000  Level FlightAware
06:41 48.4290 9.1990 134° Southeast 433 498 37,000  Level FlightAware
06:42 48.3800 9.2740 135° Southeast 433 498 37,000  Level FlightAware
06:43 48.3160 9.3700 135° Southeast 432 497 37,000 -120 Level FlightAware
06:43 48.2580 9.4540 136° Southeast 425 489 36,900  Descending FlightAware
06:44 48.1970 9.5370 138° Southeast 429 494 37,000 60 Climbing FlightAware
06:45 48.1330 9.6190 139° Southeast 429 494 37,000  Level FlightAware
06:45 48.0650 9.7070 139° Southeast 429 494 37,000  Level FlightAware
06:46 48.0020 9.7870 140° Southeast 429 494 37,000  Level FlightAware
06:47 47.9560 9.8500 137° Southeast 425 489 37,000  Level FlightAware
06:48 47.8860 9.9490 136° Southeast 427 491 37,000 -120 Level FlightAware
06:48 47.8190 10.0460 136° Southeast 429 494 36,900  Descending FlightAware
06:49 47.7600 10.1310 136° Southeast 430 495 37,000 60 Climbing FlightAware
06:50 47.7010 10.2140 137° Southeast 432 497 37,000 -60 Level FlightAware
06:52 47.5654 10.5464 121° Southeast  Level Estimated
06:53 47.4930 10.7222 121° Southeast  Level Estimated
06:53 47.4080 10.6260 121° Southeast 442 509 36,900  Level FlightAware
06:54 47.3420 10.7190 136° Southeast 441 507 37,000 60 Climbing FlightAware
06:54 47.2810 10.8020 137° Southeast 443 510 37,000  Level FlightAware
06:55 47.2170 10.8910 137° Southeast 444 511 37,000  Level FlightAware
06:56 47.1650 10.9630 137° Southeast 445 512 37,000 -120 Level FlightAware
06:56 47.0970 11.0560 137° Southeast 442 509 36,900  Descending FlightAware
06:57 47.0290 11.1490 137° Southeast 443 510 37,000 60 Climbing FlightAware
06:58 46.9690 11.2300 137° Southeast 445 512 37,000  Level FlightAware
06:59 46.9020 11.3240 136° Southeast 443 510 37,000 -120 Level FlightAware
06:59 46.8400 11.4080 137° Southeast 441 507 36,900  Descending FlightAware
07:00 46.7750 11.4960 137° Southeast 439 505 37,000 60 Climbing FlightAware
07:01 46.7150 11.5750 138° Southeast 444 511 37,000  Level FlightAware
07:01 46.6600 11.6500 137° Southeast 440 506 37,000  Level FlightAware
07:02 46.5860 11.7500 137° Southeast 427 491 37,000  Level FlightAware
07:03 46.5280 11.8260 138° Southeast 424 488 37,000  Level FlightAware
07:03 46.4680 11.9060 137° Southeast 423 487 37,000  Level FlightAware
07:04 46.4020 12.0000 135° Southeast 426 490 37,000  Level FlightAware
07:05 46.3490 12.0790 134° Southeast 426 490 37,000  Level FlightAware
07:06 46.2860 12.1760 133° Southeast 425 489 37,000  Level FlightAware
07:06 46.2310 12.2600 133° Southeast 428 493 37,000  Level FlightAware
07:07 46.1800 12.3380 133° Southeast 426 490 37,000  Level FlightAware
07:08 46.1210 12.4450 128° Southeast 438 504 37,000  Level FlightAware
07:08 46.0730 12.5320 128° Southeast 421 484 37,000  Level FlightAware
07:09 46.0140 12.6320 130° Southeast 422 486 37,000  Level FlightAware
07:10 45.9650 12.7180 129° Southeast 424 488 37,000  Level FlightAware
07:10 45.9160 12.8070 128° Southeast 426 490 37,000  Level FlightAware
07:11 45.8590 12.9080 129° Southeast 435 501 37,000  Level FlightAware
07:12 45.8080 12.9980 129° Southeast 437 503 37,000  Level FlightAware
07:12 45.7570 13.0890 129° Southeast 439 505 37,000  Level FlightAware
07:13 45.7050 13.1820 129° Southeast 441 507 37,000  Level FlightAware
07:14 45.6480 13.2840 129° Southeast 440 506 37,000  Level FlightAware
07:15 45.5410 13.4720 129° Southeast 442 509 37,000  Level FlightAware
07:16 45.4930 13.5550 130° Southeast 437 503 37,000  Level FlightAware
07:17 45.4310 13.6640 129° Southeast 437 503 37,000  Level FlightAware
07:18 45.3600 13.7880 129° Southeast 439 505 37,000  Level FlightAware
07:18 45.3080 13.8760 130° Southeast 440 506 37,000  Level FlightAware
07:21 45.1443 14.2459 122° Southeast  Level Estimated
07:22 45.0701 14.4121 122° Southeast  Level Estimated
07:23 44.9956 14.5778 122° Southeast  Level Estimated
07:23 44.8980 14.5750 123° Southeast 441 507 37,000  Level FlightAware
07:24 44.9209 14.7432 123° Southeast  Level Estimated
07:24 44.8520 14.6530 130° Southeast 446 513 37,000  Level FlightAware
07:25 44.7880 14.7620 130° Southeast 446 513 37,000  Level FlightAware
07:26 44.7040 14.9020 130° Southeast 447 514 37,000  Level FlightAware
07:27 44.6380 15.0110 130° Southeast 448 516 37,000  Level FlightAware
07:27 44.5800 15.1070 130° Southeast 449 517 37,000  Level FlightAware
07:28 44.5270 15.1960 130° Southeast 452 520 37,000  Level FlightAware
07:29 44.4630 15.3000 131° Southeast 453 521 37,000  Level FlightAware
07:30 44.4080 15.3920 130° Southeast 448 516 37,000  Level FlightAware
07:30 44.3530 15.4790 131° Southeast 450 518 37,000  Level FlightAware
07:31 44.2910 15.5820 130° Southeast 451 519 37,000  Level FlightAware
07:32 44.2360 15.6720 130° Southeast 451 519 37,000  Level FlightAware
07:32 44.1750 15.7700 131° Southeast 452 520 37,000  Level FlightAware
07:33 44.1190 15.8590 131° Southeast 452 520 37,000  Level FlightAware
07:34 44.0630 15.9500 131° Southeast 452 520 37,000 -120 Level FlightAware
07:34 44.0010 16.0500 131° Southeast 450 518 36,900  Descending FlightAware
07:35 43.9460 16.1380 131° Southeast 448 516 37,000 60 Climbing FlightAware
07:36 43.8840 16.2360 131° Southeast 447 514 37,000  Level FlightAware
07:37 43.8290 16.3240 131° Southeast 447 514 37,000  Level FlightAware
07:37 43.7750 16.4080 132° Southeast 445 512 37,000 -120 Level FlightAware
07:38 43.7140 16.5060 131° Southeast 447 514 36,900  Descending FlightAware
07:39 43.6570 16.5950 131° Southeast 446 513 37,000 60 Climbing FlightAware
07:39 43.6020 16.6820 131° Southeast 451 519 37,000 -120 Level FlightAware
07:40 43.5390 16.7800 132° Southeast 459 528 36,900 -120 Descending FlightAware
07:41 43.4820 16.8680 132° Southeast 461 531 36,900 60 Level FlightAware
07:41 43.4200 16.9650 131° Southeast 463 533 37,000 60 Climbing FlightAware
07:42 43.3610 17.0550 132° Southeast 466 536 37,000  Level FlightAware
07:43 43.3060 17.1410 131° Southeast 465 535 37,000  Level FlightAware
07:44 43.2400 17.2430 132° Southeast 464 534 37,000  Level FlightAware
07:44 43.1830 17.3280 133° Southeast 463 533 37,000  Level FlightAware
07:45 43.1190 17.4270 132° Southeast 464 534 37,000  Level FlightAware
07:46 43.0610 17.5170 131° Southeast 460 529 37,000  Level FlightAware
07:46 42.9980 17.6100 133° Southeast 460 529 37,000 -120 Level FlightAware
07:47 42.9440 17.6930 132° Southeast 460 529 36,900  Descending FlightAware
07:48 42.8820 17.7870 132° Southeast 462 532 37,000 60 Climbing FlightAware
07:48 42.8150 17.8880 132° Southeast 463 533 37,000  Level FlightAware
07:49 42.7600 17.9710 132° Southeast 466 536 37,000  Level FlightAware
07:50 42.6890 18.0770 132° Southeast 473 544 37,000  Level FlightAware
07:51 42.6320 18.1600 133° Southeast 474 545 37,000  Level FlightAware
07:51 42.5710 18.2500 133° Southeast 474 545 37,000  Level FlightAware
07:52 42.5030 18.3460 134° Southeast 470 541 37,000  Level FlightAware
07:53 42.4420 18.4290 135° Southeast 471 542 37,000 -120 Level FlightAware
07:53 42.3820 18.5070 136° Southeast 473 544 36,900  Descending FlightAware
07:54 42.3080 18.6070 135° Southeast 475 547 37,000  Climbing FlightAware
07:55 42.2450 18.6910 135° Southeast 476 548 36,900  Descending FlightAware
07:55 42.1870 18.7710 134° Southeast 476 548 37,000 60 Climbing FlightAware
07:56 42.1130 18.8670 136° Southeast 478 550 37,000  Level FlightAware
07:57 42.0250 18.9850 135° Southeast 480 552 37,000  Level FlightAware
07:58 41.9560 19.0770 135° Southeast 481 554 37,000  Level FlightAware
07:58 41.8920 19.1600 136° Southeast 482 555 37,000  Level FlightAware
07:59 41.8280 19.2440 136° Southeast 485 558 37,000 -120 Level FlightAware
08:00 41.7530 19.3390 137° Southeast 484 557 36,900  Descending FlightAware
08:01 41.6840 19.4160 140° Southeast 483 556 37,000 60 Climbing FlightAware
08:01 41.6100 19.5010 139° Southeast 483 556 37,000 -120 Level FlightAware
08:02 41.5420 19.5780 140° Southeast 482 555 36,900  Descending FlightAware
08:03 41.4740 19.6530 140° Southeast 482 555 37,000  Climbing FlightAware
08:03 41.3970 19.7430 139° Southeast 485 558 36,900  Descending FlightAware
08:04 41.3340 19.8280 135° Southeast 488 562 37,000  Climbing FlightAware
08:05 41.2630 19.9230 135° Southeast 492 566 36,900  Descending FlightAware
08:05 41.2020 20.0070 134° Southeast 494 568 37,000 60 Climbing FlightAware
08:06 41.1250 20.1090 135° Southeast 494 568 37,000  Level FlightAware
08:07 41.0600 20.1940 135° Southeast 494 568 37,000  Level FlightAware
08:08 40.9940 20.2830 134° Southeast 496 571 37,000  Level FlightAware
08:08 40.9270 20.3710 135° Southeast 497 572 37,000  Level FlightAware
08:09 40.8810 20.4330 134° Southeast 499 574 37,000  Level FlightAware
08:10 40.8160 20.5170 136° Southeast 500 575 37,000 -120 Level FlightAware
08:10 40.7380 20.6210 135° Southeast 502 578 36,900  Descending FlightAware
08:11 40.6450 20.7420 135° Southeast 502 578 37,000  Climbing FlightAware
08:12 40.5480 20.8690 135° Southeast 504 580 37,000  Level FlightAware
08:13 40.4730 20.9630 136° Southeast 505 581 37,000 480 Level FlightAware
08:14 40.4050 21.0420 138° Southeast 505 581 37,700 1,020 Climbing FlightAware
08:14 40.3510 21.1050 138° Southeast 504 580 38,300 540 Climbing FlightAware
08:15 40.2570 21.2130 139° Southeast 39,000 360 Climbing FlightAware
08:16 40.1690 21.3130 139° Southeast 501 577 38,900  Descending FlightAware
08:16 40.0970 21.3970 138° Southeast 500 575 39,000 60 Climbing FlightAware
08:17 40.0280 21.4840 136° Southeast 505 581 39,000  Level FlightAware
08:18 39.9650 21.5750 132° Southeast 507 583 39,000  Level FlightAware
08:18 39.9100 21.6570 131° Southeast 507 583 39,000 -120 Level FlightAware
08:19 39.8320 21.7710 132° Southeast 508 585 38,900  Descending FlightAware
08:20 39.7610 21.8720 132° Southeast 510 587 39,000  Climbing FlightAware
08:21 39.6990 21.9640 131° Southeast 512 589 38,900  Descending FlightAware
08:21 39.6340 22.0580 132° Southeast 513 590 39,000 60 Climbing FlightAware
08:22 39.5620 22.1640 131° Southeast 514 592 39,000  Level FlightAware
08:23 39.4990 22.2560 132° Southeast 516 594 39,000  Level FlightAware
08:23 39.4350 22.3480 132° Southeast 517 595 39,000  Level FlightAware
08:24 39.3640 22.4490 132° Southeast 519 597 39,000  Level FlightAware
08:25 39.3000 22.5410 132° Southeast 520 598 39,000 -120 Level FlightAware
08:26 39.2250 22.6470 132° Southeast 519 597 38,900  Descending FlightAware
08:26 39.1600 22.7390 132° Southeast 519 597 39,000  Climbing FlightAware
08:27 39.0990 22.8260 132° Southeast 520 598 38,900  Descending FlightAware
08:28 39.0240 22.9340 132° Southeast 521 600 39,000  Climbing FlightAware
08:28 38.9590 23.0260 132° Southeast 521 600 38,900  Descending FlightAware
08:29 38.8870 23.1260 133° Southeast 520 598 39,000 60 Climbing FlightAware
08:30 38.8220 23.2180 132° Southeast 522 601 39,000  Level FlightAware
08:30 38.7580 23.3070 133° Southeast 523 602 39,000  Level FlightAware
08:31 38.6820 23.4140 132° Southeast 523 602 39,000  Level FlightAware
08:32 38.6160 23.5060 133° Southeast 525 604 39,000  Level FlightAware
08:33 38.5430 23.6060 133° Southeast 525 604 39,000  Level FlightAware
08:33 38.4770 23.6970 133° Southeast 526 605 39,000  Level FlightAware
08:34 38.4110 23.7890 132° Southeast 527 606 39,000  Level FlightAware
08:35 38.3350 23.8940 133° Southeast 528 608 39,000 -120 Level FlightAware
08:35 38.2670 23.9850 134° Southeast 529 609 38,900  Descending FlightAware
08:36 38.1950 24.0850 132° Southeast 529 609 39,000 60 Climbing FlightAware
08:37 38.1180 24.1900 133° Southeast 529 609 39,000  Level FlightAware
08:37 38.0510 24.2800 133° Southeast 529 609 39,000  Level FlightAware
08:38 37.9840 24.3710 133° Southeast 527 606 39,000  Level FlightAware
08:39 37.9100 24.4720 133° Southeast 527 606 39,000  Level FlightAware
08:40 37.8430 24.5620 133° Southeast 527 606 39,000 -120 Level FlightAware
08:40 37.7740 24.6540 133° Southeast 529 609 38,900  Descending FlightAware
08:41 37.7020 24.7510 133° Southeast 530 610 39,000  Climbing FlightAware
08:42 37.6340 24.8410 134° Southeast 531 611 38,900  Descending FlightAware
08:42 37.5570 24.9420 134° Southeast 531 611 39,000  Climbing FlightAware
08:43 37.4920 25.0300 133° Southeast 532 612 38,900  Descending FlightAware
08:44 37.4200 25.1240 134° Southeast 533 613 39,000  Climbing FlightAware
08:44 37.3440 25.2230 134° Southeast 534 615 38,900  Descending FlightAware
08:45 37.2770 25.3120 133° Southeast 535 616 39,000 60 Climbing FlightAware
08:46 37.2080 25.4020 134° Southeast 535 616 39,000  Level FlightAware
08:47 37.1290 25.5050 134° Southeast 535 616 39,000 -120 Level FlightAware
08:47 37.0610 25.5950 133° Southeast 536 617 38,900  Descending FlightAware
08:48 36.9850 25.6930 134° Southeast 536 617 39,000 60 Climbing FlightAware
08:49 36.9150 25.7820 135° Southeast 536 617 39,000  Level FlightAware
08:49 36.8360 25.8850 134° Southeast 539 620 39,000  Level FlightAware
08:50 36.7660 25.9750 134° Southeast 540 621 39,000 -120 Level FlightAware
08:51 36.7010 26.0590 134° Southeast 540 621 38,900  Descending FlightAware
08:51 36.6210 26.1620 134° Southeast 539 620 39,000 60 Climbing FlightAware
08:52 36.5580 26.2560 130° Southeast 542 624 39,000  Level FlightAware
08:53 36.5040 26.3860 117° Southeast 546 628 39,000  Level FlightAware
08:54 36.4590 26.4960 117° Southeast 547 629 39,000  Level FlightAware
08:54 36.4150 26.6050 117° Southeast 547 629 39,000  Level FlightAware
08:55 36.3670 26.7260 116° Southeast 548 631 39,000  Level FlightAware
08:56 36.3080 26.8730 116° Southeast 547 629 39,000  Level FlightAware
08:56 36.2640 26.9810 117° Southeast 547 629 39,000  Level FlightAware
08:57 36.2030 27.1260 118° Southeast 546 628 39,000  Level FlightAware
08:58 36.1590 27.2340 117° Southeast 546 628 39,000  Level FlightAware
08:59 36.1060 27.3620 117° Southeast 546 628 39,000  Level FlightAware
08:59 36.0600 27.4730 117° Southeast 545 627 39,000  Level FlightAware
09:00 36.0130 27.5840 118° Southeast 543 625 39,000 -120 Level FlightAware
09:01 35.9730 27.6760 118° Southeast 541 623 38,900 -120 Descending FlightAware
09:01 35.9230 27.7830 120° Southeast 541 623 38,900 60 Level FlightAware
09:02 35.8460 27.9040 128° Southeast 538 619 39,000 60 Climbing FlightAware
09:03 35.7940 27.9940 125° Southeast 537 618 39,000 -120 Level FlightAware
09:04 35.7120 28.1320 126° Southeast 536 617 38,900  Descending FlightAware
09:04 35.6540 28.2310 126° Southeast 535 616 39,000 60 Climbing FlightAware
09:05 35.5980 28.3270 126° Southeast 534 615 39,000 -120 Level FlightAware
09:06 35.5310 28.4400 126° Southeast 531 611 38,900  Descending FlightAware
09:06 35.4730 28.5370 126° Southeast 529 609 39,000  Climbing FlightAware
09:07 35.4100 28.6430 126° Southeast 526 605 38,900  Descending FlightAware
09:08 35.3520 28.7390 127° Southeast 525 604 39,000 60 Climbing FlightAware
09:08 35.2950 28.8350 126° Southeast 524 603 39,000 -120 Level FlightAware
09:09 35.2320 28.9400 126° Southeast 523 602 38,900  Descending FlightAware
09:10 35.1720 29.0400 126° Southeast 522 601 39,000 60 Climbing FlightAware
09:11 35.1090 29.1420 127° Southeast 520 598 39,000  Level FlightAware
09:11 35.0590 29.2250 126° Southeast 519 597 39,000  Level FlightAware
09:12 34.9950 29.3310 126° Southeast 519 597 39,000  Level FlightAware
09:13 34.9370 29.4260 127° Southeast 519 597 39,000 -120 Level FlightAware
09:13 34.8720 29.5310 127° Southeast 517 595 38,900 -240 Descending FlightAware
09:14 34.8070 29.6370 127° Southeast 519 597 38,700 -900 Descending FlightAware
09:15 34.7490 29.7320 127° Southeast 524 603 37,700 -1,200 Descending FlightAware
09:16 34.6810 29.8410 127° Southeast 524 603 37,000 -420 Descending FlightAware
09:17 34.5980 29.9790 126° Southeast 523 602 37,000  Level FlightAware
09:17 34.5280 30.1130 122° Southeast 522 601 37,000  Level FlightAware
09:18 34.4660 30.2430 120° Southeast 525 604 37,000  Level FlightAware
09:19 34.4160 30.3490 120° Southeast 528 608 37,000  Level FlightAware
09:20 34.3590 30.4650 121° Southeast 529 609 37,000  Level FlightAware
09:20 34.3080 30.5730 120° Southeast 529 609 37,000  Level FlightAware
09:21 34.2550 30.6810 121° Southeast 529 609 37,000  Level FlightAware
09:22 34.2040 30.7870 120° Southeast 529 609 37,000  Level FlightAware
09:22 34.1530 30.8920 120° Southeast 535 616 37,000  Level FlightAware
09:23 34.1010 30.9980 121° Southeast 535 616 37,000  Level FlightAware
09:24 34.0080 31.1870 121° Southeast 533 613 37,000  Level FlightAware
09:25 33.9440 31.3180 120° Southeast 533 613 37,000  Level FlightAware
09:26 33.8740 31.4610 120° Southeast 535 616 37,000  Level FlightAware
09:27 33.8230 31.5630 121° Southeast 537 618 37,000  Level FlightAware
09:28 33.7610 31.6870 121° Southeast 540 621 37,000  Level FlightAware
09:28 33.7120 31.7850 121° Southeast 541 623 37,000  Level FlightAware
09:29 33.6590 31.8900 121° Southeast 539 620 37,000  Level FlightAware
09:30 33.6010 32.0070 121° Southeast 539 620 37,000  Level FlightAware
09:30 33.5500 32.1070 121° Southeast 539 620 37,000  Level FlightAware
09:31 33.5000 32.2080 121° Southeast 540 621 37,000 -180 Level FlightAware
09:32 33.4010 32.4010 122° Southeast 540 621 36,700 -780 Descending FlightAware
09:33 33.3490 32.5040 121° Southeast 544 626 35,600 -1,320 Descending FlightAware
09:34 33.2950 32.6100 121° Southeast 537 618 35,000 -1,440 Descending FlightAware
09:34 33.2350 32.7270 121° Southeast 526 605 33,600 -2,280 Descending FlightAware
09:35 33.1900 32.8140 122° Southeast 528 608 32,000 -1,320 Descending FlightAware
09:36 33.1400 32.9150 121° Southeast 528 608 31,900 -1,440 Descending FlightAware
09:36 33.0800 33.0270 123° Southeast 491 565 29,900 -2,100 Descending FlightAware
09:37 33.0300 33.1240 122° Southeast 489 563 29,000 -1,320 Descending FlightAware
09:38 32.9760 33.2290 121° Southeast 486 559 28,100 -1,200 Descending FlightAware
09:39 32.9320 33.3130 122° Southeast 478 550 27,300 -1,620 Descending FlightAware
09:39 32.8890 33.3940 122° Southeast 465 535 26,100 -2,100 Descending FlightAware
09:40 32.8330 33.5010 122° Southeast 452 520 24,400 -2,100 Descending FlightAware
09:41 32.7890 33.5850 122° Southeast 442 509 23,000 -2,220 Descending FlightAware
09:41 32.7460 33.6670 122° Southeast 436 502 21,500 -2,340 Descending FlightAware
09:42 32.6990 33.7580 122° Southeast 429 494 19,700 -2,520 Descending FlightAware
09:43 32.6550 33.8390 123° Southeast 425 489 18,000 -2,400 Descending FlightAware
09:43 32.6090 33.9260 122° Southeast 422 486 16,300 -2,280 Descending FlightAware
09:44 32.5710 34.0000 121° Southeast 414 476 14,800 -2,400 Descending FlightAware
09:45 32.5230 34.0880 123° Southeast 398 458 12,900 -2,400 Descending FlightAware
09:46 32.4840 34.1580 123° Southeast 383 441 11,400 -1,920 Descending FlightAware
09:46 32.4390 34.2140 134° Southeast 360 414 10,400 -960 Descending FlightAware
09:47 32.3880 34.2760 134° Southeast 337 388 10,100 -720 Descending FlightAware
09:47 32.3630 34.3050 136° Southeast 295 339 9,600 -1,500 Descending FlightAware
09:48 32.3470 34.3230 136° Southeast 294 338 9,100 -1,620 Descending FlightAware
09:48 32.3190 34.3560 135° Southeast 289 333 8,400 -1,200 Descending FlightAware
09:49 32.2960 34.3840 134° Southeast 284 327 8,000 -600 Descending FlightAware
09:49 32.2730 34.4160 130° Southeast 283 326 7,900 -240 Descending FlightAware
09:52 32.0687 34.7366 115° Southeast  Level FlightAware Approximate
09:53 32.0000 34.8667 125° Southeast  Level FlightAware Approximate
09:54 32.0095 34.8769 125° Southeast  Level Estimated
09:55 32.0095 34.8769 125° Southeast  Level Estimated
09:56 32.0095 34.8769 125° Southeast  Level Estimated
09:57 32.0095 34.8769 125° Southeast  Level Estimated
09:58 32.0095 34.8769 125° Southeast  Level Estimated
09:59 32.0095 34.8769 125° Southeast  Level Estimated
10:00 32.0095 34.8769 125° Southeast  Level Estimated
10:01 32.0095 34.8769 125° Southeast  Level Estimated
10:02 32.0095 34.8769 125° Southeast  Level Estimated
10:03 32.0095 34.8769 125° Southeast  Level Estimated
10:04 32.0095 34.8769 125° Southeast  Level Estimated
10:05 32.0095 34.8769 125° Southeast  Level Estimated
10:06 32.0095 34.8769 125° Southeast  Level Estimated
10:07 32.0095 34.8769 125° Southeast  Level Estimated